AMC-11

Last updated on Sun Apr 12 2026 00:02:51 GMT+0000 (Coordinated Universal Time)

1 28252U 04017A 26101.49867729 -.00000048 00000+0 00000+0 0 9994 2 28252 0.1360 80.9704 0003337 311.4334 235.7319 1.00271660 80195
UTC large
Height (km)
Speed (km/s)
/
Latitude / Longitude
Inclination (degrees)
Orbital Period (minutes)
Azimuth
Elevation
Range (km)
Doppler Factor

Next 0 passes for location: London (51.5072 / 0.1276)

No passes found over London.
AMC-11